Location: Boda
(47.1872°N, 9.5454°E)
Time: 09:54:52
(UTC+00:00)

Cosmos 1025 Rocket - Pass Details

Date: 14 May 2021
Orbit: 594 x 618 km, 82.5° (Epoch: 16 June)

Event Time Altitude Azimuth Distance (km) Brightness Sun altitude
Exits shadow 01:04:24 27° 146° (SE) 1,177 4.2 -20.0°
Maximum altitude 01:06:16 43° 93° (E) 866 3.9 -19.8°
Drops below altitude 10° 01:10:26 10° 22° (NNE) 1,985 6.9 -19.5°
Sets 01:12:44 0° 16° (NNE) 2,899 8.0 -19.3°
